Location: Cactus School
(34.5700°N, 118.0931°W)
Time: 02:41:37
(UTC-07:00)

Courier 1B - Pass Details

Date: 27 April 2024
Orbit: 962 x 1208 km, 28.3° (Epoch: 23 May)

Event Time Altitude Azimuth Distance (km) Brightness Sun altitude
Exits shadow 04:06:53 37° 207° (SSW) 1,651 8.2 -22.6°
Maximum altitude 04:07:26 38° 198° (SSW) 1,633 8.2 -22.5°
Drops below altitude 10° 04:13:54 10° 132° (SE) 2,888 10.1 -21.4°
Sets 04:16:44 0° 124° (SE) 3,803 10.9 -20.9°
